Location: Csohesd
(46.2500°N, 22.6167°E)
Time: 04:37:32
(UTC+00:00)

NOSS 3-1 (C) - Pass Details

Date: 21 October 2021
Orbit: 717 x 1491 km, 63.4° (Epoch: 25 November)

Event Time Altitude Azimuth Distance (km) Brightness Sun altitude
Rises 16:48:34 0° 199° (SSW) 3,159 6.5 -13.8°
Reaches altitude 10° 16:50:52 10° 193° (SSW) 2,285 5.6 -14.2°
Maximum altitude 16:55:51 49° 119° (ESE) 1,058 3.4 -15.1°
Enters shadow 17:00:50 14° 49° (NE) 2,359 5.1 -15.9°
